Погода в Дерри

Великобритания     55°01′47″N   7°17′19″W
темп.,
°C
ветер,
м/с
пор.,
м/с
влажн.,
%
обл.,
%
осадки,
мм/ч
давл.,
гПа
погр.,
м
23 апреля, пт
пт2301:00+2юв11710 0.0 102711
04:00+1юв115817 0.0 102710
07:00+3вюв1157100 0.0 102712
10:00+10юв2652100 0.0 1027504
13:00+13юв5751100 0.0 1026944
16:00+14юв4647100 0.0 10261087
19:00+11юв3762100 0.0 1026682
22:00+7вюв2269100 0.0 102744
24 апреля, сб
сб2401:00+6в1166100 0.0 102717
04:00+5в1165100 0.0 102715
07:00+5в22765 0.0 102829
10:00+12вюв46590 0.0 1028691
13:00+15юв57440 0.0 10281158
16:00+15юв56460 0.0 10281236
19:00+12юв47605 0.0 1028530
22:00+5вюв118298 0.0 103011
25 апреля, вс
вс2501:00+4вюв11875 0.0 103110
04:00+3вюв118723 0.0 103110
07:00+5юв1189100 0.0 103113
10:00+11ююв1268100 0.0 1031411
13:00+15юв1253100 0.0 10301441
16:00+15юв2151100 0.1 10281440
19:00+12всв2377100 0.2 1028167
22:00+7ююв11955 0.0 102910
26 апреля, пн
пн2601:00+6ююз119511 0.0 102810
04:00+5ююз119570 0.0 102710
07:00+5юз229387 0.0 102654
10:00+11зюз2372100 0.0 1025407
13:00+14зсз3551100 0.1 10221611
16:00+14зсз574997 0.0 10201369
19:00+9з4986100 0.0 1018824
22:00+6з389699 0.3 1017309
27 апреля, вт
вт2701:00+7сз389425 0.4 1016542
04:00+4з119935 0.0 101417
07:00+5ссз139845 0.1 1014175
10:00+9ссв477757 0.2 1014975
13:00+7св5987100 0.5 10151111
16:00+9св7127369 0.1 10161192
19:00+8всв511715 0.3 10181301
22:00+5всв289069 0.0 1020295